Time,TemperatureF,DewpointF,PressureIn,WindDirection,WindDirectionDegrees,WindSpeedMPH,WindSpeedGustMPH,Humidity,HourlyPrecipIn,Conditions,Clouds,dailyrainin,SoftwareType,DateUTC
2013-04-29 00:01:00,47.3,27.5,29.78,SSW,203,0.7,3.1,46,0.00,,,0.00,WUHU216HW,2013-04-29 04:01:00,
2013-04-29 00:02:00,47.5,28.2,29.77,SW,225,1.1,3.1,47,0.00,,,0.00,WUHU216HW,2013-04-29 04:02:00,
2013-04-29 00:07:00,47.7,28.4,29.78,SSW,203,1.8,3.1,47,0.00,,,0.00,WUHU216HW,2013-04-29 04:07:00,
2013-04-29 00:13:00,47.7,27.8,29.78,SSW,203,0.9,4.0,46,0.00,,,0.00,WUHU216HW,2013-04-29 04:13:00,
2013-04-29 00:18:00,47.9,27.9,29.77,ENE,68,0.0,4.0,46,0.00,,,0.00,WUHU216HW,2013-04-29 04:18:00,
2013-04-29 00:23:00,47.5,28.7,29.77,SE,135,0.0,1.3,48,0.00,,,0.00,WUHU216HW,2013-04-29 04:23:00,
2013-04-29 00:28:00,47.3,28.5,29.78,SSE,158,0.0,1.1,48,0.00,,,0.00,WUHU216HW,2013-04-29 04:28:00,
2013-04-29 00:33:00,47.2,28.4,29.77,SSE,158,0.0,1.1,48,0.00,,,0.00,WUHU216HW,2013-04-29 04:33:00,
2013-04-29 00:38:00,46.8,28.6,29.77,SSE,158,0.0,0.4,49,0.00,,,0.00,WUHU216HW,2013-04-29 04:38:00,
2013-04-29 00:43:00,46.4,28.8,29.78,SE,135,0.0,0.0,50,0.00,,,0.00,WUHU216HW,2013-04-29 04:43:00,
2013-04-29 00:48:00,46.4,28.8,29.78,SE,135,0.9,0.9,50,0.00,,,0.00,WUHU216HW,2013-04-29 04:48:00,
2013-04-29 00:53:00,46.4,28.8,29.77,SSE,158,1.8,1.8,50,0.00,,,0.00,WUHU216HW,2013-04-29 04:53:00,
2013-04-29 00:58:00,46.4,28.8,29.77,ESE,113,1.3,1.8,50,0.00,,,0.00,WUHU216HW,2013-04-29 04:58:00,
2013-04-29 01:04:00,46.8,28.6,29.77,ESE,113,0.2,1.8,49,0.00,,,0.00,WUHU216HW,2013-04-29 05:04:00,
2013-04-29 01:09:00,46.6,29.0,29.77,SSE,158,0.9,1.1,50,0.00,,,0.00,WUHU216HW,2013-04-29 05:09:00,
2013-04-29 01:14:00,46.6,28.5,29.77,SSE,158,0.0,1.6,49,0.00,,,0.00,WUHU216HW,2013-04-29 05:14:00,
2013-04-29 01:19:00,46.6,29.0,29.77,SSE,158,0.0,1.8,50,0.00,,,0.00,WUHU216HW,2013-04-29 05:19:00,
2013-04-29 01:24:00,46.8,29.2,29.77,South,180,0.7,1.8,50,0.00,,,0.00,WUHU216HW,2013-04-29 05:24:00,
2013-04-29 01:29:00,46.6,29.4,29.76,SSE,158,0.4,1.8,51,0.00,,,0.00,WUHU216HW,2013-04-29 05:29:00,
2013-04-29 01:34:00,46.4,30.2,29.77,SSW,203,1.1,1.3,53,0.00,,,0.00,WUHU216HW,2013-04-29 05:34:00,
2013-04-29 01:39:00,46.6,29.9,29.77,SE,135,0.0,1.3,52,0.00,,,0.00,WUHU216HW,2013-04-29 05:39:00,
2013-04-29 01:44:00,46.8,30.1,29.76,ESE,113,0.0,0.9,52,0.00,,,0.00,WUHU216HW,2013-04-29 05:44:00,
2013-04-29 01:50:00,46.4,29.7,29.76,NE,45,0.0,0.9,52,0.00,,,0.00,WUHU216HW,2013-04-29 05:50:00,
2013-04-29 01:55:00,46.1,29.8,29.76,NE,45,0.0,0.4,53,0.00,,,0.00,WUHU216HW,2013-04-29 05:55:00,
2013-04-29 02:00:00,45.7,29.5,29.76,NE,45,0.0,0.4,53,0.00,,,0.00,WUHU216HW,2013-04-29 06:00:00,
2013-04-29 02:05:00,45.5,29.3,29.76,NE,45,0.0,0.0,53,0.00,,,0.00,WUHU216HW,2013-04-29 06:05:00,
2013-04-29 02:10:00,45.2,29.0,29.76,NE,45,0.0,0.0,53,0.00,,,0.00,WUHU216HW,2013-04-29 06:10:00,
2013-04-29 02:15:00,45.0,29.4,29.76,NE,45,0.0,0.2,54,0.00,,,0.00,WUHU216HW,2013-04-29 06:15:00,
2013-04-29 02:20:00,44.8,30.1,29.75,NE,45,0.0,0.2,56,0.00,,,0.00,WUHU216HW,2013-04-29 06:20:00,
2013-04-29 02:25:00,44.6,29.4,29.75,NE,45,0.0,0.0,55,0.00,,,0.00,WUHU216HW,2013-04-29 06:25:00,
2013-04-29 02:31:00,44.5,29.7,29.75,NE,45,0.0,0.0,56,0.00,,,0.00,WUHU216HW,2013-04-29 06:31:00,
2013-04-29 02:36:00,44.5,29.7,29.75,NE,45,0.0,0.0,56,0.00,,,0.00,WUHU216HW,2013-04-29 06:36:00,
2013-04-29 02:41:00,44.3,30.0,29.75,NE,45,0.0,0.0,57,0.00,,,0.00,WUHU216HW,2013-04-29 06:41:00,
2013-04-29 02:46:00,44.3,30.0,29.75,NE,45,0.0,0.0,57,0.00,,,0.00,WUHU216HW,2013-04-29 06:46:00,
2013-04-29 02:51:00,44.3,30.0,29.74,NE,45,0.0,0.0,57,0.00,,,0.00,WUHU216HW,2013-04-29 06:51:00,
2013-04-29 02:56:00,44.1,30.7,29.74,NE,45,0.0,0.0,59,0.00,,,0.00,WUHU216HW,2013-04-29 06:56:00,
2013-04-29 03:01:00,44.1,30.7,29.74,NE,45,0.0,0.0,59,0.00,,,0.00,WUHU216HW,2013-04-29 07:01:00,
2013-04-29 03:06:00,44.1,30.7,29.74,NE,45,0.0,0.0,59,0.00,,,0.00,WUHU216HW,2013-04-29 07:06:00,
2013-04-29 03:11:00,43.9,30.5,29.74,NE,45,0.0,0.0,59,0.00,,,0.00,WUHU216HW,2013-04-29 07:11:00,
2013-04-29 03:17:00,43.9,31.0,29.74,NE,45,0.0,0.0,60,0.00,,,0.00,WUHU216HW,2013-04-29 07:17:00,
2013-04-29 03:22:00,43.7,30.8,29.74,NE,45,0.0,0.0,60,0.00,,,0.00,WUHU216HW,2013-04-29 07:22:00,
2013-04-29 03:27:00,43.6,30.6,29.74,NE,45,0.0,0.0,60,0.00,,,0.00,WUHU216HW,2013-04-29 07:27:00,
2013-04-29 03:32:00,43.7,31.1,29.74,NE,45,0.0,0.0,61,0.00,,,0.00,WUHU216HW,2013-04-29 07:32:00,
2013-04-29 03:37:00,43.6,31.4,29.74,NE,45,0.0,0.0,62,0.00,,,0.00,WUHU216HW,2013-04-29 07:37:00,
2013-04-29 03:42:00,43.7,32.0,29.74,North,0,0.0,0.9,63,0.00,,,0.00,WUHU216HW,2013-04-29 07:42:00,
2013-04-29 03:47:00,43.9,32.1,29.74,North,0,0.0,0.9,63,0.00,,,0.00,WUHU216HW,2013-04-29 07:47:00,
2013-04-29 03:53:00,43.9,32.1,29.74,North,0,0.4,0.9,63,0.00,,,0.00,WUHU216HW,2013-04-29 07:53:00,
2013-04-29 03:58:00,43.7,32.8,29.74,North,0,0.0,0.4,65,0.00,,,0.00,WUHU216HW,2013-04-29 07:58:00,
2013-04-29 04:03:00,43.7,32.8,29.74,NE,45,0.0,0.9,65,0.00,,,0.00,WUHU216HW,2013-04-29 08:03:00,
2013-04-29 04:08:00,43.7,32.8,29.74,NE,45,0.0,0.9,65,0.00,,,0.00,WUHU216HW,2013-04-29 08:08:00,
2013-04-29 04:13:00,43.6,32.6,29.75,NE,45,0.0,0.4,65,0.00,,,0.00,WUHU216HW,2013-04-29 08:13:00,
2013-04-29 04:18:00,43.6,32.6,29.75,NE,45,0.0,0.4,65,0.00,,,0.00,WUHU216HW,2013-04-29 08:18:00,
2013-04-29 04:23:00,43.4,32.8,29.75,NE,45,0.0,0.0,66,0.00,,,0.00,WUHU216HW,2013-04-29 08:23:00,
2013-04-29 04:28:00,43.4,32.8,29.75,NE,45,0.0,0.0,66,0.00,,,0.00,WUHU216HW,2013-04-29 08:28:00,
2013-04-29 04:33:00,43.4,32.8,29.75,NE,45,0.0,0.0,66,0.00,,,0.00,WUHU216HW,2013-04-29 08:33:00,
2013-04-29 04:39:00,43.2,33.0,29.75,NE,45,0.0,0.0,67,0.00,,,0.00,WUHU216HW,2013-04-29 08:39:00,
2013-04-29 04:44:00,43.2,33.0,29.75,NE,45,0.0,0.0,67,0.00,,,0.00,WUHU216HW,2013-04-29 08:44:00,
2013-04-29 04:49:00,43.2,33.4,29.75,NE,45,0.0,0.0,68,0.00,,,0.00,WUHU216HW,2013-04-29 08:49:00,
2013-04-29 04:54:00,43.2,33.4,29.75,NE,45,0.0,0.0,68,0.00,,,0.00,WUHU216HW,2013-04-29 08:54:00,
2013-04-29 04:59:00,43.2,34.2,29.75,SSW,203,0.0,1.3,70,0.00,,,0.00,WUHU216HW,2013-04-29 08:59:00,
2013-04-29 05:04:00,43.2,33.8,29.75,SSW,203,0.0,1.3,69,0.00,,,0.00,WUHU216HW,2013-04-29 09:04:00,
2013-04-29 05:09:00,43.0,33.6,29.75,SSE,158,0.2,1.1,69,0.00,,,0.00,WUHU216HW,2013-04-29 09:09:00,
2013-04-29 05:15:00,43.0,34.0,29.75,South,180,0.9,2.2,70,0.00,,,0.00,WUHU216HW,2013-04-29 09:15:00,
2013-04-29 05:20:00,43.0,34.3,29.75,SSW,203,1.1,2.2,71,0.00,,,0.00,WUHU216HW,2013-04-29 09:20:00,
2013-04-29 05:25:00,43.0,34.3,29.75,South,180,1.1,1.3,71,0.00,,,0.00,WUHU216HW,2013-04-29 09:25:00,
2013-04-29 05:30:00,43.6,36.2,29.75,SSE,158,0.0,4.0,75,0.00,,,0.00,WUHU216HW,2013-04-29 09:30:00,
2013-04-29 05:35:00,44.1,36.4,29.75,SW,225,0.0,4.0,74,0.00,,,0.00,WUHU216HW,2013-04-29 09:35:00,
2013-04-29 05:40:00,44.6,36.8,29.75,South,180,0.4,1.8,74,0.00,,,0.00,WUHU216HW,2013-04-29 09:40:00,
2013-04-29 05:45:00,45.0,37.2,29.75,SSW,203,0.7,1.8,74,0.00,,,0.00,WUHU216HW,2013-04-29 09:45:00,
2013-04-29 05:50:00,45.2,37.7,29.75,NNW,338,3.8,3.8,75,0.00,,,0.00,WUHU216HW,2013-04-29 09:50:00,
2013-04-29 05:56:00,45.7,38.3,29.76,SSW,203,0.2,3.8,75,0.00,,,0.00,WUHU216HW,2013-04-29 09:56:00,
2013-04-29 06:01:00,45.5,37.7,29.76,SE,135,0.2,2.5,74,0.00,,,0.00,WUHU216HW,2013-04-29 10:01:00,
2013-04-29 06:06:00,45.2,37.7,29.76,ESE,113,1.1,1.1,75,0.00,,,0.00,WUHU216HW,2013-04-29 10:06:00,
2013-04-29 06:11:00,45.2,37.7,29.76,West,270,0.0,1.6,75,0.00,,,0.00,WUHU216HW,2013-04-29 10:11:00,
2013-04-29 06:16:00,45.2,37.4,29.76,East,90,0.2,2.7,74,0.00,,,0.00,WUHU216HW,2013-04-29 10:16:00,
2013-04-29 06:21:00,45.0,37.2,29.76,ESE,113,1.1,2.7,74,0.00,,,0.00,WUHU216HW,2013-04-29 10:21:00,
2013-04-29 06:26:00,44.6,36.5,29.76,East,90,0.4,1.3,73,0.00,,,0.00,WUHU216HW,2013-04-29 10:26:00,
2013-04-29 06:32:00,44.6,36.5,29.76,SSE,158,0.0,1.3,73,0.00,,,0.00,WUHU216HW,2013-04-29 10:32:00,
2013-04-29 06:37:00,44.6,36.8,29.76,East,90,0.0,1.3,74,0.00,,,0.00,WUHU216HW,2013-04-29 10:37:00,
2013-04-29 06:42:00,44.8,37.0,29.76,NNE,23,0.0,1.1,74,0.00,,,0.00,WUHU216HW,2013-04-29 10:42:00,
2013-04-29 06:47:00,45.0,36.8,29.76,East,90,0.4,1.1,73,0.00,,,0.00,WUHU216HW,2013-04-29 10:47:00,
2013-04-29 06:52:00,45.4,37.5,29.76,East,90,0.2,1.1,74,0.00,,,0.00,WUHU216HW,2013-04-29 10:52:00,
2013-04-29 06:57:00,46.1,38.6,29.76,ENE,68,0.9,1.6,75,0.00,,,0.00,WUHU216HW,2013-04-29 10:57:00,
2013-04-29 07:02:00,46.6,38.8,29.76,ENE,68,0.9,1.6,74,0.00,,,0.00,WUHU216HW,2013-04-29 11:02:00,
2013-04-29 07:07:00,47.2,39.2,29.77,NNE,23,0.4,1.3,74,0.00,,,0.00,WUHU216HW,2013-04-29 11:07:00,
2013-04-29 07:12:00,48.1,40.4,29.77,East,90,0.9,1.6,75,0.00,,,0.00,WUHU216HW,2013-04-29 11:12:00,
2013-04-29 07:17:00,49.3,41.0,29.77,North,0,0.4,1.8,73,0.00,,,0.00,WUHU216HW,2013-04-29 11:17:00,
2013-04-29 07:22:00,50.0,41.4,29.77,NE,45,0.0,1.8,72,0.00,,,0.00,WUHU216HW,2013-04-29 11:22:00,
2013-04-29 07:28:00,51.5,42.9,29.77,North,0,1.1,1.8,72,0.00,,,0.00,WUHU216HW,2013-04-29 11:28:00,
2013-04-29 07:33:00,52.9,44.2,29.77,WSW,248,0.7,4.5,72,0.00,,,0.00,WUHU216HW,2013-04-29 11:33:00,
2013-04-29 07:38:00,54.4,45.2,29.77,West,270,0.4,4.7,71,0.00,,,0.00,WUHU216HW,2013-04-29 11:38:00,
2013-04-29 07:43:00,55.1,45.5,29.77,SSW,203,2.9,4.9,70,0.00,,,0.00,WUHU216HW,2013-04-29 11:43:00,
2013-04-29 07:48:00,55.1,45.1,29.77,WSW,248,2.9,4.9,69,0.00,,,0.00,WUHU216HW,2013-04-29 11:48:00,
2013-04-29 07:53:00,55.1,45.1,29.77,West,270,4.0,4.5,69,0.00,,,0.00,WUHU216HW,2013-04-29 11:53:00,
2013-04-29 07:58:00,55.3,45.3,29.77,WSW,248,2.2,4.0,69,0.00,,,0.00,WUHU216HW,2013-04-29 11:58:00,
2013-04-29 08:03:00,56.0,46.0,29.78,WSW,248,2.0,4.0,69,0.00,,,0.00,WUHU216HW,2013-04-29 12:03:00,
2013-04-29 08:08:00,57.1,46.5,29.77,SSW,203,1.1,4.0,68,0.00,,,0.00,WUHU216HW,2013-04-29 12:08:00,
2013-04-29 08:14:00,58.0,46.6,29.77,ESE,113,0.4,2.5,66,0.00,,,0.00,WUHU216HW,2013-04-29 12:14:00,
2013-04-29 08:19:00,59.2,47.0,29.77,WSW,248,2.2,2.5,64,0.00,,,0.00,WUHU216HW,2013-04-29 12:19:00,
2013-04-29 08:24:00,59.8,47.2,29.77,WSW,248,2.0,6.3,63,0.00,,,0.00,WUHU216HW,2013-04-29 12:24:00,
2013-04-29 08:29:00,60.5,47.9,29.77,SW,225,1.1,6.3,63,0.00,,,0.00,WUHU216HW,2013-04-29 12:29:00,
2013-04-29 08:34:00,62.1,48.5,29.77,SSE,158,2.2,4.5,61,0.00,,,0.00,WUHU216HW,2013-04-29 12:34:00,
2013-04-29 08:39:00,63.0,48.4,29.77,WSW,248,4.9,4.9,59,0.00,,,0.00,WUHU216HW,2013-04-29 12:39:00,
2013-04-29 08:44:00,63.5,48.4,29.77,WSW,248,1.1,4.9,58,0.00,,,0.00,WUHU216HW,2013-04-29 12:44:00,
2013-04-29 08:49:00,64.1,48.0,29.77,SSW,203,2.2,4.7,56,0.00,,,0.00,WUHU216HW,2013-04-29 12:49:00,
2013-04-29 08:54:00,63.2,46.6,29.77,WNW,293,3.1,4.0,55,0.00,,,0.00,WUHU216HW,2013-04-29 12:54:00,
2013-04-29 08:59:00,61.7,46.4,29.77,WSW,248,1.8,4.0,57,0.00,,,0.00,WUHU216HW,2013-04-29 12:59:00,
2013-04-29 09:04:00,61.6,46.6,29.77,WSW,248,0.7,4.0,58,0.00,,,0.00,WUHU216HW,2013-04-29 13:04:00,
2013-04-29 09:09:00,61.9,47.0,29.77,West,270,0.4,4.3,58,0.00,,,0.00,WUHU216HW,2013-04-29 13:09:00,
2013-04-29 09:15:00,62.6,47.2,29.77,WNW,293,2.0,4.7,57,0.00,,,0.00,WUHU216HW,2013-04-29 13:15:00,
2013-04-29 09:20:00,63.2,47.6,29.77,SW,225,1.8,4.7,57,0.00,,,0.00,WUHU216HW,2013-04-29 13:20:00,
2013-04-29 09:25:00,63.4,47.4,29.77,WSW,248,2.5,4.9,56,0.00,,,0.00,WUHU216HW,2013-04-29 13:25:00,
2013-04-29 09:30:00,63.4,46.8,29.77,SW,225,2.2,4.9,55,0.00,,,0.00,WUHU216HW,2013-04-29 13:30:00,
2013-04-29 09:35:00,63.5,47.4,29.77,WSW,248,4.0,4.3,56,0.00,,,0.00,WUHU216HW,2013-04-29 13:35:00,
2013-04-29 09:40:00,63.9,47.4,29.77,SSW,203,0.0,4.0,55,0.00,,,0.00,WUHU216HW,2013-04-29 13:40:00,
2013-04-29 09:45:00,64.3,47.6,29.77,SSW,203,2.5,4.0,55,0.00,,,0.00,WUHU216HW,2013-04-29 13:45:00,
2013-04-29 09:50:00,64.4,46.8,29.77,West,270,4.0,5.1,53,0.00,,,0.00,WUHU216HW,2013-04-29 13:50:00,
2013-04-29 09:55:00,64.1,47.0,29.77,SSW,203,4.3,5.4,54,0.00,,,0.00,WUHU216HW,2013-04-29 13:55:00,
2013-04-29 10:00:00,64.1,47.0,29.77,SW,225,3.4,5.4,54,0.00,,,0.00,WUHU216HW,2013-04-29 14:00:00,
2013-04-29 10:06:00,64.1,47.0,29.77,West,270,1.1,4.7,54,0.00,,,0.00,WUHU216HW,2013-04-29 14:06:00,
2013-04-29 10:11:00,64.4,46.4,29.76,West,270,1.8,4.7,52,0.00,,,0.00,WUHU216HW,2013-04-29 14:11:00,
2013-04-29 10:16:00,64.8,47.2,29.76,West,270,1.1,3.1,53,0.00,,,0.00,WUHU216HW,2013-04-29 14:16:00,
2013-04-29 10:21:00,65.7,47.6,29.76,NW,315,2.5,5.4,52,0.00,,,0.00,WUHU216HW,2013-04-29 14:21:00,
2013-04-29 10:26:00,65.9,46.8,29.76,SSW,203,0.9,5.4,50,0.00,,,0.00,WUHU216HW,2013-04-29 14:26:00,
2013-04-29 10:31:00,66.2,47.6,29.76,SW,225,2.2,5.4,51,0.00,,,0.00,WUHU216HW,2013-04-29 14:31:00,
2013-04-29 10:36:00,67.1,48.0,29.76,SSW,203,3.8,6.9,50,0.00,,,0.00,WUHU216HW,2013-04-29 14:36:00,
2013-04-29 10:41:00,67.1,46.2,29.76,SW,225,2.5,8.1,47,0.00,,,0.00,WUHU216HW,2013-04-29 14:41:00,
2013-04-29 10:46:00,67.3,47.0,29.76,WSW,248,1.6,8.1,48,0.00,,,0.00,WUHU216HW,2013-04-29 14:46:00,
2013-04-29 10:52:00,67.5,45.9,29.76,South,180,4.9,5.4,46,0.00,,,0.00,WUHU216HW,2013-04-29 14:52:00,
2013-04-29 10:57:00,67.0,45.5,29.76,South,180,8.9,8.9,46,0.00,,,0.00,WUHU216HW,2013-04-29 14:57:00,
2013-04-29 11:02:00,67.0,46.6,29.76,West,270,2.9,8.9,48,0.00,,,0.00,WUHU216HW,2013-04-29 15:02:00,
2013-04-29 11:07:00,67.3,46.4,29.76,SW,225,1.8,7.8,47,0.00,,,0.00,WUHU216HW,2013-04-29 15:07:00,
2013-04-29 11:12:00,67.7,46.7,29.76,NW,315,0.7,4.7,47,0.00,,,0.00,WUHU216HW,2013-04-29 15:12:00,
2013-04-29 11:17:00,67.7,46.7,29.76,WSW,248,0.7,4.7,47,0.00,,,0.00,WUHU216HW,2013-04-29 15:17:00,
2013-04-29 11:22:00,67.5,46.5,29.76,SE,135,2.7,6.3,47,0.00,,,0.00,WUHU216HW,2013-04-29 15:22:00,
2013-04-29 11:27:00,68.4,46.7,29.76,NW,315,1.6,6.3,46,0.00,,,0.00,WUHU216HW,2013-04-29 15:27:00,
2013-04-29 11:32:00,69.1,48.0,29.76,South,180,5.6,9.8,47,0.00,,,0.00,WUHU216HW,2013-04-29 15:32:00,
2013-04-29 11:37:00,69.8,48.6,29.75,SW,225,1.8,9.8,47,0.00,,,0.00,WUHU216HW,2013-04-29 15:37:00,
2013-04-29 11:43:00,70.9,48.4,29.76,South,180,6.0,6.7,45,0.00,,,0.00,WUHU216HW,2013-04-29 15:43:00,
2013-04-29 11:48:00,71.1,46.8,29.75,South,180,2.2,6.7,42,0.00,,,0.00,WUHU216HW,2013-04-29 15:48:00,
2013-04-29 11:53:00,70.7,47.1,29.75,WSW,248,4.7,6.7,43,0.00,,,0.00,WUHU216HW,2013-04-29 15:53:00,
2013-04-29 11:58:00,70.9,47.3,29.75,SSW,203,5.6,7.8,43,0.00,,,0.00,WUHU216HW,2013-04-29 15:58:00,
2013-04-29 12:03:00,71.3,47.5,29.74,SSW,203,3.1,7.8,43,0.00,,,0.00,WUHU216HW,2013-04-29 16:03:00,
2013-04-29 12:08:00,71.3,47.0,29.74,SW,225,1.8,9.2,42,0.00,,,0.00,WUHU216HW,2013-04-29 16:08:00,
2013-04-29 12:13:00,71.1,46.2,29.74,South,180,2.2,9.8,41,0.00,,,0.00,WUHU216HW,2013-04-29 16:13:00,
2013-04-29 12:18:00,71.3,45.0,29.74,SE,135,6.0,9.8,39,0.00,,,0.00,WUHU216HW,2013-04-29 16:18:00,
2013-04-29 12:23:00,70.9,45.5,29.74,SW,225,2.0,9.4,40,0.00,,,0.00,WUHU216HW,2013-04-29 16:23:00,
2013-04-29 12:28:00,71.6,43.8,29.74,South,180,4.0,9.4,37,0.00,,,0.00,WUHU216HW,2013-04-29 16:28:00,
2013-04-29 12:33:00,71.5,43.8,29.74,SSE,158,4.0,9.6,37,0.00,,,0.00,WUHU216HW,2013-04-29 16:33:00,
2013-04-29 12:38:00,71.3,42.0,29.74,SSW,203,9.8,9.8,35,0.00,,,0.00,WUHU216HW,2013-04-29 16:38:00,
2013-04-29 12:44:00,71.6,42.4,29.73,SSW,203,6.3,9.8,35,0.00,,,0.00,WUHU216HW,2013-04-29 16:44:00,
2013-04-29 12:49:00,72.0,41.9,29.73,SSW,203,2.9,7.8,34,0.00,,,0.00,WUHU216HW,2013-04-29 16:49:00,
2013-04-29 12:54:00,72.2,40.6,29.73,South,180,6.3,8.5,32,0.00,,,0.00,WUHU216HW,2013-04-29 16:54:00,
2013-04-29 12:59:00,72.4,42.3,29.73,SSW,203,2.2,8.5,34,0.00,,,0.00,WUHU216HW,2013-04-29 16:59:00,
2013-04-29 13:04:00,72.5,41.7,29.73,WSW,248,4.3,6.3,33,0.00,,,0.00,WUHU216HW,2013-04-29 17:04:00,
2013-04-29 13:09:00,72.9,41.9,29.73,West,270,3.1,9.2,33,0.00,,,0.00,WUHU216HW,2013-04-29 17:09:00,
2013-04-29 13:14:00,73.1,42.1,29.73,SSW,203,2.5,9.2,33,0.00,,,0.00,WUHU216HW,2013-04-29 17:14:00,
2013-04-29 13:19:00,73.3,41.5,29.73,SW,225,2.9,6.9,32,0.00,,,0.00,WUHU216HW,2013-04-29 17:19:00,
2013-04-29 13:24:00,73.8,43.5,29.73,ESE,113,1.8,6.9,34,0.00,,,0.00,WUHU216HW,2013-04-29 17:24:00,
2013-04-29 13:29:00,73.8,41.9,29.72,WSW,248,3.1,5.6,32,0.00,,,0.00,WUHU216HW,2013-04-29 17:29:00,
2013-04-29 13:34:00,73.8,42.8,29.72,West,270,3.6,8.7,33,0.00,,,0.00,WUHU216HW,2013-04-29 17:34:00,
2013-04-29 13:40:00,74.0,42.9,29.72,South,180,9.2,9.4,33,0.00,,,0.00,WUHU216HW,2013-04-29 17:40:00,
2013-04-29 13:45:00,74.2,42.3,29.72,WSW,248,2.5,9.4,32,0.00,,,0.00,WUHU216HW,2013-04-29 17:45:00,
2013-04-29 13:50:00,73.6,42.6,29.72,WSW,248,2.7,9.2,33,0.00,,,0.00,WUHU216HW,2013-04-29 17:50:00,
2013-04-29 13:55:00,74.0,43.7,29.72,SSE,158,2.7,9.8,34,0.00,,,0.00,WUHU216HW,2013-04-29 17:55:00,
2013-04-29 14:00:00,74.9,44.5,29.71,SSW,203,2.5,9.8,34,0.00,,,0.00,WUHU216HW,2013-04-29 18:00:00,
2013-04-29 14:05:00,75.4,44.2,29.72,WSW,248,2.0,8.1,33,0.00,,,0.00,WUHU216HW,2013-04-29 18:05:00,
2013-04-29 14:10:00,74.3,42.5,29.71,WNW,293,2.5,8.1,32,0.00,,,0.00,WUHU216HW,2013-04-29 18:10:00,
2013-04-29 14:15:00,73.8,43.5,29.71,SSW,203,4.0,5.1,34,0.00,,,0.00,WUHU216HW,2013-04-29 18:15:00,
2013-04-29 14:20:00,74.7,42.8,29.71,SW,225,3.6,6.7,32,0.00,,,0.00,WUHU216HW,2013-04-29 18:20:00,
2013-04-29 14:25:00,75.6,43.6,29.71,SW,225,2.5,11.9,32,0.00,,,0.00,WUHU216HW,2013-04-29 18:25:00,
2013-04-29 14:30:00,76.0,44.6,29.71,West,270,2.7,11.9,33,0.00,,,0.00,WUHU216HW,2013-04-29 18:30:00,
2013-04-29 14:35:00,76.1,43.3,29.71,SSW,203,3.1,3.8,31,0.00,,,0.00,WUHU216HW,2013-04-29 18:35:00,
2013-04-29 14:41:00,75.2,42.5,29.71,WSW,248,3.6,8.7,31,0.00,,,0.00,WUHU216HW,2013-04-29 18:41:00,
2013-04-29 14:46:00,74.7,42.0,29.71,SSE,158,4.0,10.3,31,0.00,,,0.00,WUHU216HW,2013-04-29 18:46:00,
2013-04-29 14:51:00,74.2,41.6,29.71,South,180,3.8,10.3,31,0.00,,,0.00,WUHU216HW,2013-04-29 18:51:00,
2013-04-29 14:56:00,73.1,41.4,29.71,WSW,248,5.4,7.6,32,0.00,,,0.00,WUHU216HW,2013-04-29 18:56:00,
2013-04-29 15:01:00,73.8,40.5,29.71,SSW,203,7.8,11.0,30,0.00,,,0.00,WUHU216HW,2013-04-29 19:01:00,
2013-04-29 15:06:00,74.2,41.6,29.70,WSW,248,3.4,11.0,31,0.00,,,0.00,WUHU216HW,2013-04-29 19:06:00,
2013-04-29 15:11:00,74.2,42.3,29.70,West,270,0.4,8.3,32,0.00,,,0.00,WUHU216HW,2013-04-29 19:11:00,
2013-04-29 15:16:00,74.2,41.6,29.71,West,270,2.2,8.5,31,0.00,,,0.00,WUHU216HW,2013-04-29 19:16:00,
2013-04-29 15:21:00,73.8,41.9,29.70,WSW,248,1.3,8.5,32,0.00,,,0.00,WUHU216HW,2013-04-29 19:21:00,
2013-04-29 15:26:00,72.9,41.2,29.70,SSW,203,1.1,5.8,32,0.00,,,0.00,WUHU216HW,2013-04-29 19:26:00,
2013-04-29 15:31:00,72.5,41.7,29.70,South,180,3.4,5.8,33,0.00,,,0.00,WUHU216HW,2013-04-29 19:31:00,
2013-04-29 15:37:00,72.2,41.4,29.70,South,180,4.5,6.5,33,0.00,,,0.00,WUHU216HW,2013-04-29 19:37:00,
2013-04-29 15:42:00,71.5,41.5,29.70,WSW,248,1.6,6.5,34,0.00,,,0.00,WUHU216HW,2013-04-29 19:42:00,
2013-04-29 15:47:00,70.9,41.1,29.70,SW,225,8.9,8.9,34,0.00,,,0.00,WUHU216HW,2013-04-29 19:47:00,
2013-04-29 15:52:00,69.8,40.8,29.70,SSW,203,3.4,8.9,35,0.00,,,0.00,WUHU216HW,2013-04-29 19:52:00,
2013-04-29 15:57:00,69.3,40.3,29.70,SSW,203,2.9,8.5,35,0.00,,,0.00,WUHU216HW,2013-04-29 19:57:00,
2013-04-29 16:02:00,68.9,40.7,29.70,SW,225,3.6,6.5,36,0.00,,,0.00,WUHU216HW,2013-04-29 20:02:00,
2013-04-29 16:07:00,68.6,40.4,29.70,South,180,5.6,7.4,36,0.00,,,0.00,WUHU216HW,2013-04-29 20:07:00,
2013-04-29 16:12:00,68.2,40.8,29.70,SSW,203,1.8,7.4,37,0.00,,,0.00,WUHU216HW,2013-04-29 20:12:00,
2013-04-29 16:17:00,68.2,40.8,29.70,SW,225,2.7,5.6,37,0.00,,,0.00,WUHU216HW,2013-04-29 20:17:00,
2013-04-29 16:22:00,68.4,41.0,29.70,SSW,203,3.4,6.9,37,0.00,,,0.00,WUHU216HW,2013-04-29 20:22:00,
2013-04-29 16:28:00,68.4,40.2,29.70,SSW,203,3.4,6.9,36,0.00,,,0.00,WUHU216HW,2013-04-29 20:28:00,
2013-04-29 16:33:00,68.4,39.5,29.70,SSW,203,6.7,6.7,35,0.00,,,0.00,WUHU216HW,2013-04-29 20:33:00,
2013-04-29 16:38:00,67.9,39.0,29.70,SW,225,2.9,9.2,35,0.00,,,0.00,WUHU216HW,2013-04-29 20:38:00,
2013-04-29 16:43:00,67.5,39.4,29.70,SW,225,2.5,9.2,36,0.00,,,0.00,WUHU216HW,2013-04-29 20:43:00,
2013-04-29 16:48:00,67.3,40.0,29.70,WSW,248,0.9,5.6,37,0.00,,,0.00,WUHU216HW,2013-04-29 20:48:00,
2013-04-29 16:53:00,67.1,39.9,29.70,SW,225,4.0,7.8,37,0.00,,,0.00,WUHU216HW,2013-04-29 20:53:00,
2013-04-29 16:58:00,67.0,39.0,29.70,SW,225,3.6,7.8,36,0.00,,,0.00,WUHU216HW,2013-04-29 20:58:00,
2013-04-29 17:03:00,66.6,38.6,29.71,WSW,248,1.1,6.3,36,0.00,,,0.00,WUHU216HW,2013-04-29 21:03:00,
2013-04-29 17:08:00,66.6,38.6,29.71,WSW,248,2.5,6.9,36,0.00,,,0.00,WUHU216HW,2013-04-29 21:08:00,
2013-04-29 17:13:00,66.1,37.4,29.71,SW,225,3.4,6.9,35,0.00,,,0.00,WUHU216HW,2013-04-29 21:13:00,
2013-04-29 17:18:00,65.9,38.0,29.71,West,270,1.8,5.4,36,0.00,,,0.00,WUHU216HW,2013-04-29 21:18:00,
2013-04-29 17:23:00,65.9,38.0,29.71,SW,225,3.1,5.4,36,0.00,,,0.00,WUHU216HW,2013-04-29 21:23:00,
2013-04-29 17:28:00,65.7,37.2,29.71,WNW,293,2.0,7.2,35,0.00,,,0.00,WUHU216HW,2013-04-29 21:28:00,
2013-04-29 17:33:00,65.3,36.8,29.71,SW,225,2.7,7.2,35,0.00,,,0.00,WUHU216HW,2013-04-29 21:33:00,
2013-04-29 17:38:00,65.0,36.5,29.71,SW,225,1.1,5.1,35,0.00,,,0.00,WUHU216HW,2013-04-29 21:38:00,
2013-04-29 17:44:00,64.8,35.7,29.71,SW,225,6.3,7.8,34,0.00,,,0.00,WUHU216HW,2013-04-29 21:44:00,
2013-04-29 17:49:00,64.4,35.3,29.72,West,270,3.1,7.8,34,0.00,,,0.00,WUHU216HW,2013-04-29 21:49:00,
2013-04-29 17:54:00,64.1,34.9,29.72,South,180,1.6,6.5,34,0.00,,,0.00,WUHU216HW,2013-04-29 21:54:00,
2013-04-29 17:59:00,63.9,34.1,29.72,WSW,248,6.7,9.6,33,0.00,,,0.00,WUHU216HW,2013-04-29 21:59:00,
2013-04-29 18:04:00,63.5,33.8,29.72,SSW,203,4.7,9.6,33,0.00,,,0.00,WUHU216HW,2013-04-29 22:04:00,
2013-04-29 18:09:00,63.2,34.1,29.72,SW,225,1.8,6.9,34,0.00,,,0.00,WUHU216HW,2013-04-29 22:09:00,
2013-04-29 18:14:00,63.0,35.5,29.72,SSW,203,1.1,5.1,36,0.00,,,0.00,WUHU216HW,2013-04-29 22:14:00,
2013-04-29 18:19:00,63.0,35.5,29.73,WSW,248,1.1,5.4,36,0.00,,,0.00,WUHU216HW,2013-04-29 22:19:00,
2013-04-29 18:24:00,62.6,35.1,29.73,South,180,2.5,5.4,36,0.00,,,0.00,WUHU216HW,2013-04-29 22:24:00,
2013-04-29 18:30:00,62.5,34.9,29.73,SSW,203,4.9,4.9,36,0.00,,,0.00,WUHU216HW,2013-04-29 22:30:00,
2013-04-29 18:35:00,61.9,34.5,29.73,SSW,203,4.0,7.2,36,0.00,,,0.00,WUHU216HW,2013-04-29 22:35:00,
2013-04-29 18:40:00,61.6,34.1,29.73,South,180,6.9,7.2,36,0.00,,,0.00,WUHU216HW,2013-04-29 22:40:00,
2013-04-29 18:45:00,61.2,33.9,29.73,SSW,203,1.8,6.9,36,0.00,,,0.00,WUHU216HW,2013-04-29 22:45:00,
2013-04-29 18:50:00,60.8,32.0,29.73,SSW,203,10.3,10.3,34,0.00,,,0.00,WUHU216HW,2013-04-29 22:50:00,
2013-04-29 18:55:00,60.8,32.0,29.73,South,180,4.9,10.3,34,0.00,,,0.00,WUHU216HW,2013-04-29 22:55:00,
2013-04-29 19:00:00,60.5,32.5,29.73,SSW,203,1.8,10.3,35,0.00,,,0.00,WUHU216HW,2013-04-29 23:00:00,
2013-04-29 19:05:00,60.3,31.6,29.73,SSW,203,2.2,6.3,34,0.00,,,0.00,WUHU216HW,2013-04-29 23:05:00,
2013-04-29 19:11:00,60.1,31.4,29.73,SW,225,2.7,6.3,34,0.00,,,0.00,WUHU216HW,2013-04-29 23:11:00,
2013-04-29 19:16:00,59.8,31.2,29.73,SW,225,4.9,4.9,34,0.00,,,0.00,WUHU216HW,2013-04-29 23:16:00,
2013-04-29 19:21:00,59.8,31.2,29.73,SSW,203,3.4,5.4,34,0.00,,,0.00,WUHU216HW,2013-04-29 23:21:00,
2013-04-29 19:26:00,59.4,30.9,29.74,SW,225,0.9,5.4,34,0.00,,,0.00,WUHU216HW,2013-04-29 23:26:00,
2013-04-29 19:31:00,59.4,30.9,29.74,SSW,203,3.4,6.7,34,0.00,,,0.00,WUHU216HW,2013-04-29 23:31:00,
2013-04-29 19:36:00,59.0,31.2,29.73,West,270,0.9,6.7,35,0.00,,,0.00,WUHU216HW,2013-04-29 23:36:00,
2013-04-29 19:41:00,58.9,31.8,29.74,WSW,248,1.6,6.0,36,0.00,,,0.00,WUHU216HW,2013-04-29 23:41:00,
2013-04-29 19:46:00,58.5,31.4,29.74,South,180,3.4,5.4,36,0.00,,,0.00,WUHU216HW,2013-04-29 23:46:00,
2013-04-29 19:51:00,58.3,31.3,29.74,SW,225,1.3,6.0,36,0.00,,,0.00,WUHU216HW,2013-04-29 23:51:00,
2013-04-29 19:56:00,58.1,31.2,29.74,SSW,203,0.9,6.0,36,0.00,,,0.00,WUHU216HW,2013-04-29 23:56:00,
2013-04-29 20:01:00,58.0,31.0,29.74,SSW,203,0.9,2.5,36,0.00,,,0.00,WUHU216HW,2013-04-30 00:01:00,
2013-04-29 20:06:00,57.6,31.3,29.74,SW,225,0.0,3.4,37,0.00,,,0.00,WUHU216HW,2013-04-30 00:06:00,
2013-04-29 20:11:00,57.4,31.1,29.74,SW,225,0.0,3.4,37,0.00,,,0.00,WUHU216HW,2013-04-30 00:11:00,
2013-04-29 20:17:00,57.1,30.9,29.75,WSW,248,1.1,1.8,37,0.00,,,0.00,WUHU216HW,2013-04-30 00:17:00,
2013-04-29 20:22:00,56.7,30.5,29.75,SSW,203,0.4,2.5,37,0.00,,,0.00,WUHU216HW,2013-04-30 00:22:00,
2013-04-29 20:27:00,56.5,31.1,29.75,WSW,248,0.0,2.5,38,0.00,,,0.00,WUHU216HW,2013-04-30 00:27:00,
2013-04-29 20:32:00,56.3,30.9,29.75,SSW,203,1.1,1.8,38,0.00,,,0.00,WUHU216HW,2013-04-30 00:32:00,
2013-04-29 20:37:00,56.2,30.8,29.76,West,270,0.7,1.8,38,0.00,,,0.00,WUHU216HW,2013-04-30 00:37:00,
2013-04-29 20:42:00,56.0,30.6,29.76,SW,225,2.0,2.0,38,0.00,,,0.00,WUHU216HW,2013-04-30 00:42:00,
2013-04-29 20:47:00,56.0,30.6,29.76,WSW,248,0.2,2.0,38,0.00,,,0.00,WUHU216HW,2013-04-30 00:47:00,
2013-04-29 20:52:00,55.8,29.7,29.76,SSW,203,1.1,2.2,37,0.00,,,0.00,WUHU216HW,2013-04-30 00:52:00,
2013-04-29 20:57:00,55.8,29.0,29.76,WSW,248,3.4,4.0,36,0.00,,,0.00,WUHU216HW,2013-04-30 00:57:00,
2013-04-29 21:02:00,55.8,29.7,29.77,South,180,0.7,4.0,37,0.00,,,0.00,WUHU216HW,2013-04-30 01:02:00,
2013-04-29 21:08:00,55.6,29.5,29.77,South,180,3.6,3.6,37,0.00,,,0.00,WUHU216HW,2013-04-30 01:08:00,
2013-04-29 21:13:00,55.4,29.4,29.77,SW,225,1.3,3.6,37,0.00,,,0.00,WUHU216HW,2013-04-30 01:13:00,
2013-04-29 21:18:00,55.3,29.3,29.77,SW,225,0.7,3.4,37,0.00,,,0.00,WUHU216HW,2013-04-30 01:18:00,
2013-04-29 21:23:00,55.3,29.3,29.77,SW,225,0.4,2.9,37,0.00,,,0.00,WUHU216HW,2013-04-30 01:23:00,
2013-04-29 21:28:00,55.1,29.1,29.77,WSW,248,0.4,2.9,37,0.00,,,0.00,WUHU216HW,2013-04-30 01:28:00,
2013-04-29 21:33:00,55.1,28.4,29.77,SSW,203,2.5,3.4,36,0.00,,,0.00,WUHU216HW,2013-04-30 01:33:00,
2013-04-29 21:38:00,55.1,28.4,29.77,SSE,158,3.8,3.8,36,0.00,,,0.00,WUHU216HW,2013-04-30 01:38:00,
2013-04-29 21:43:00,54.9,28.9,29.77,SSW,203,1.3,3.8,37,0.00,,,0.00,WUHU216HW,2013-04-30 01:43:00,
2013-04-29 21:49:00,54.7,28.1,29.77,SW,225,0.4,4.5,36,0.00,,,0.00,WUHU216HW,2013-04-30 01:49:00,
2013-04-29 21:54:00,54.7,28.8,29.77,SW,225,0.2,4.5,37,0.00,,,0.00,WUHU216HW,2013-04-30 01:54:00,
2013-04-29 21:59:00,54.5,28.6,29.77,SSW,203,0.0,3.6,37,0.00,,,0.00,WUHU216HW,2013-04-30 01:59:00,
2013-04-29 22:04:00,54.5,29.4,29.77,SW,225,0.4,3.6,38,0.00,,,0.00,WUHU216HW,2013-04-30 02:04:00,
2013-04-29 22:09:00,54.4,29.2,29.77,SW,225,0.4,2.7,38,0.00,,,0.00,WUHU216HW,2013-04-30 02:09:00,
2013-04-29 22:14:00,54.2,29.0,29.77,SW,225,1.1,2.0,38,0.00,,,0.00,WUHU216HW,2013-04-30 02:14:00,
2013-04-29 22:19:00,54.2,28.3,29.76,SSW,203,0.4,2.0,37,0.00,,,0.00,WUHU216HW,2013-04-30 02:19:00,
2013-04-29 22:24:00,54.2,28.3,29.76,WSW,248,0.7,2.5,37,0.00,,,0.00,WUHU216HW,2013-04-30 02:24:00,
2013-04-29 22:30:00,54.2,28.3,29.77,South,180,1.1,2.9,37,0.00,,,0.00,WUHU216HW,2013-04-30 02:30:00,
2013-04-29 22:35:00,54.2,28.3,29.77,SW,225,0.0,2.9,37,0.00,,,0.00,WUHU216HW,2013-04-30 02:35:00,
2013-04-29 22:40:00,54.2,27.6,29.77,SW,225,1.1,2.7,36,0.00,,,0.00,WUHU216HW,2013-04-30 02:40:00,
2013-04-29 22:45:00,54.0,28.2,29.77,WSW,248,0.0,1.8,37,0.00,,,0.00,WUHU216HW,2013-04-30 02:45:00,
2013-04-29 22:50:00,54.0,27.5,29.77,SSE,158,1.1,1.6,36,0.00,,,0.00,WUHU216HW,2013-04-30 02:50:00,
2013-04-29 22:55:00,53.8,27.3,29.77,SSW,203,1.6,2.5,36,0.00,,,0.00,WUHU216HW,2013-04-30 02:55:00,
2013-04-29 23:00:00,53.8,27.3,29.77,SSW,203,0.4,2.5,36,0.00,,,0.00,WUHU216HW,2013-04-30 03:00:00,
2013-04-29 23:05:00,53.8,25.9,29.77,SW,225,1.1,4.0,34,0.00,,,0.00,WUHU216HW,2013-04-30 03:05:00,
2013-04-29 23:11:00,53.6,27.2,29.77,SSW,203,1.6,4.0,36,0.00,,,0.00,WUHU216HW,2013-04-30 03:11:00,
2013-04-29 23:16:00,53.6,26.5,29.77,SSW,203,1.6,2.9,35,0.00,,,0.00,WUHU216HW,2013-04-30 03:16:00,
2013-04-29 23:21:00,53.6,27.2,29.77,SSW,203,0.9,2.9,36,0.00,,,0.00,WUHU216HW,2013-04-30 03:21:00,
2013-04-29 23:26:00,53.5,27.0,29.77,SW,225,0.4,2.9,36,0.00,,,0.00,WUHU216HW,2013-04-30 03:26:00,
2013-04-29 23:31:00,53.3,25.5,29.77,South,180,1.8,3.6,34,0.00,,,0.00,WUHU216HW,2013-04-30 03:31:00,
2013-04-29 23:36:00,53.3,26.8,29.77,SSE,158,0.9,3.6,36,0.00,,,0.00,WUHU216HW,2013-04-30 03:36:00,
2013-04-29 23:41:00,53.1,26.6,29.77,SSW,203,0.7,1.8,36,0.00,,,0.00,WUHU216HW,2013-04-30 03:41:00,
2013-04-29 23:46:00,53.1,26.6,29.77,SSE,158,0.7,2.0,36,0.00,,,0.00,WUHU216HW,2013-04-30 03:46:00,
2013-04-29 23:52:00,52.9,26.5,29.77,SW,225,1.1,2.5,36,0.00,,,0.00,WUHU216HW,2013-04-30 03:52:00,
2013-04-29 23:57:00,52.9,26.5,29.77,SSW,203,1.1,2.5,36,0.00,,,0.00,WUHU216HW,2013-04-30 03:57:00,